Memphis, TN

8:20 AM CDT on March 24, 2017 (GMT -0500)
Memphis International

Weather History for KMEM - April, 2013

Change the Weather History Date:

Wednesday, April 24, 2013

  Actual Average Record
Temperature  
Mean Temperature 56 °F 66 °F  
Max Temperature 67 °F 75 °F 88 °F (1965)
Min Temperature 44 °F 56 °F 32 °F (1910)
Degree Days  
Heating Degree Days 9 3  
Month to date heating degree days 151 124  
Since 1 July heating degree days 2855 2932  
Cooling Degree Days 0 3  
Month to date cooling degree days 59 54  
Year to date cooling degree days 70 74  
Moisture  
Dew Point 44 °F    
Average Humidity 74    
Maximum Humidity 93    
Minimum Humidity 54    
Precipitation  
Precipitation 0.72 in 0.19 in 2.94 in (2010)
Month to date precipitation 6.72 4.39  
Year to date precipitation 23.67 17.92  
Snow  
Snow 0.00 in 0.00 in - ()
Month to date snowfall 0.0 0.0  
Since 1 July snowfall 0.9 3.8  
Snow Depth 0.00 in    
Sea Level Pressure  
Sea Level Pressure 30.11 in    
Wind  
Wind Speed 10 mph (NNW)    
Max Wind Speed 21 mph    
Max Gust Speed 26 mph    
Visibility 9 miles    
Events Rain , Thunderstorm    
T = Trace of Precipitation, MM = Missing Value Source: NWS Daily Summary

Daily Weather History Graph

Daily Weather History Graph

Search for Another Location

Airport or City:

Trip Planner

Search our weather history database for the weather conditions in past years. The results will help you decide how hot, cold, wet, or windy it might be!

Date:

Astronomy

Apr. 24, 2013 Rise Set
Actual Time 6:16 AM CDT 7:39 PM CDT
Civil Twilight 5:49 AM CDT 8:06 PM CDT
Nautical Twilight 5:18 AM CDT 8:38 PM CDT
Astronomical Twilight 4:44 AM CDT 9:11 PM CDT
Moon 6:44 PM CDT 5:17 AM CDT
Length of Visible Light 14h 16m
Length of Day
13h 23m
Waxing Gibbous, 98% of the Moon is Illuminated
Apr 24
Waxing Gibbous
Apr 25
Full
May 2
Last Quarter
May 9
New
May 17
First Quarter

Hourly Weather History & Observations

Time (CDT) Temp. Windchill Dew Point Humidity Pressure Visibility Wind Dir Wind Speed Gust Speed Precip Events Conditions
12:35 AM 66.2 °F - 62.6 °F 88% 29.93 in 2.0 mi SW 12.7 mph 23.0 mph 0.33 in Rain , Thunderstorm Heavy Thunderstorms and Rain
12:45 AM 66.2 °F - 62.6 °F 88% 29.93 in 8.0 mi SSW 8.1 mph - 0.45 in Rain , Thunderstorm Light Thunderstorms and Rain
12:54 AM 66.0 °F - 63.0 °F 90% 29.91 in 5.0 mi South 16.1 mph 20.7 mph 0.55 in Rain , Thunderstorm Heavy Thunderstorms and Rain
1:34 AM 66.2 °F - 64.4 °F 94% 29.89 in 6.0 mi South 10.4 mph - 0.15 in Rain , Thunderstorm Light Thunderstorms and Rain
1:54 AM 66.9 °F - 63.0 °F 87% 29.88 in 6.0 mi West 11.5 mph 20.7 mph 0.15 in Rain , Thunderstorm Thunderstorms and Rain
2:14 AM 60.8 °F - 57.2 °F 88% 29.89 in 5.0 mi WNW 12.7 mph - 0.15 in Rain , Thunderstorm Thunderstorms and Rain
2:48 AM 55.4 °F - 53.6 °F 94% 29.91 in 10.0 mi NW 15.0 mph - 0.28 in Rain , Thunderstorm Light Thunderstorms and Rain
2:54 AM 55.0 °F - 52.0 °F 89% 29.91 in 10.0 mi NW 16.1 mph 24.2 mph 0.28 in Thunderstorm Thunderstorm
3:05 AM 53.6 °F - 51.8 °F 94% 29.91 in 10.0 mi NW 13.8 mph 26.5 mph N/A   Overcast
3:15 AM 53.6 °F - 48.2 °F 82% 29.92 in 10.0 mi NW 15.0 mph 25.3 mph N/A   Overcast
3:54 AM 50.0 °F - 46.9 °F 89% 29.96 in 9.0 mi NW 16.1 mph 26.5 mph 0.01 in Rain Light Rain
4:49 AM 48.2 °F - 44.6 °F 87% 29.98 in 10.0 mi NNW 11.5 mph - 0.07 in Rain Light Rain
4:54 AM 48.0 °F - 46.0 °F 93% 29.97 in 10.0 mi NNW 12.7 mph - 0.07 in Rain Light Rain
5:04 AM 48.2 °F - 44.6 °F 87% 29.97 in 10.0 mi NNW 9.2 mph - 0.00 in Rain Light Rain
5:54 AM 46.0 °F 39.3 °F 44.1 °F 93% 30.04 in 10.0 mi NW 16.1 mph - 0.16 in Rain Light Rain
6:54 AM 46.0 °F 41.9 °F 43.0 °F 89% 30.04 in 10.0 mi NW 8.1 mph - 0.02 in Rain Light Rain
7:14 AM 44.6 °F 38.8 °F 42.8 °F 93% 30.06 in 10.0 mi NW 11.5 mph - 0.01 in Rain Light Rain
7:21 AM 44.6 °F 37.8 °F 42.8 °F 93% 30.09 in 10.0 mi NW 15.0 mph 20.7 mph 0.01 in Rain Light Rain
7:41 AM 44.6 °F 37.8 °F 42.8 °F 93% 30.08 in 10.0 mi NNW 15.0 mph 24.2 mph 0.02 in   Overcast
7:51 AM 44.6 °F 37.8 °F 41.0 °F 87% 30.07 in 10.0 mi NNW 15.0 mph 23.0 mph 0.02 in Rain Light Rain
7:54 AM 45.0 °F 38.9 °F 41.0 °F 86% 30.07 in 10.0 mi NNW 12.7 mph 23.0 mph 0.02 in Rain Light Rain
8:45 AM 44.6 °F 37.8 °F 39.2 °F 81% 30.13 in 10.0 mi NNW 15.0 mph 21.9 mph 0.01 in   Overcast
8:54 AM 44.1 °F 35.9 °F 39.9 °F 85% 30.14 in 10.0 mi NNW 19.6 mph 26.5 mph 0.01 in   Overcast
9:54 AM 45.0 °F 39.7 °F 39.9 °F 82% 30.19 in 10.0 mi North 10.4 mph - 0.00 in   Overcast
10:35 AM 46.4 °F 41.5 °F 39.2 °F 76% 30.20 in 10.0 mi North 10.4 mph - N/A   Overcast
10:54 AM 46.0 °F 40.2 °F 39.9 °F 79% 30.21 in 10.0 mi NNW 12.7 mph - N/A   Overcast
11:54 AM 46.9 °F - 39.0 °F 74% 30.23 in 10.0 mi North 10.4 mph - N/A   Overcast
12:54 PM 51.1 °F - 41.0 °F 68% 30.23 in 10.0 mi North 10.4 mph - N/A   Mostly Cloudy
1:17 PM 51.8 °F - 39.2 °F 62% 30.23 in 10.0 mi Variable 6.9 mph - N/A   Overcast
1:31 PM 51.8 °F - 39.2 °F 62% 30.23 in 10.0 mi North 10.4 mph - N/A   Overcast
1:54 PM 51.1 °F - 39.0 °F 63% 30.23 in 10.0 mi North 10.4 mph - N/A   Overcast
2:54 PM 52.0 °F - 39.9 °F 63% 30.23 in 10.0 mi North 9.2 mph 19.6 mph N/A   Mostly Cloudy
3:43 PM 53.6 °F - 39.2 °F 58% 30.23 in 10.0 mi North 10.4 mph - N/A   Mostly Cloudy
3:54 PM 54.0 °F - 41.0 °F 62% 30.23 in 10.0 mi North 10.4 mph - N/A   Mostly Cloudy
4:28 PM 53.6 °F - 39.2 °F 58% 30.23 in 10.0 mi North 10.4 mph 16.1 mph N/A   Scattered Clouds
4:54 PM 54.0 °F - 37.9 °F 55% 30.23 in 10.0 mi NNE 12.7 mph - N/A   Scattered Clouds
5:54 PM 54.0 °F - 37.0 °F 53% 30.23 in 10.0 mi NNE 8.1 mph - N/A   Partly Cloudy
6:54 PM 53.1 °F - 37.9 °F 57% 30.23 in 10.0 mi NE 8.1 mph - N/A   Partly Cloudy
7:54 PM 50.0 °F - 37.9 °F 63% 30.25 in 10.0 mi NNE 5.8 mph - N/A   Partly Cloudy
8:54 PM 48.9 °F - 37.9 °F 66% 30.27 in 10.0 mi NNE 4.6 mph - N/A   Clear
9:54 PM 48.0 °F - 39.0 °F 71% 30.30 in 10.0 mi NE 4.6 mph - N/A   Clear
10:54 PM 48.0 °F - 37.9 °F 68% 30.30 in 10.0 mi ENE 5.8 mph - N/A   Clear
11:54 PM 48.0 °F - 37.9 °F 68% 30.30 in 10.0 mi Calm Calm - N/A   Clear